Simultaneous Nadir Overpasses (SNOs) Predictions

Prediction of SNOs between NOAA-15 and METOP-C Satellite Orbit:

Table of predicted SNOs for the next 14.0 days since TLE Epoch: 12/17/2022
Index Date (NOAA-15) Time (NOAA-15) Lat,Lon (NOAA-15) SZA (NOAA-15 ) Date (METOP-C) Time (METOP-C) Lat,Lon (METOP-C) SZA (METOP-C ) Distance(km) Time Diff (sec)
1 12/20/2022 05:58:42 -81.00, -49.67 73.56 12/20/2022 05:57:34 -81.00, -52.66 73.87 52.01 68
2 12/20/2022 06:49:18 81.06, 116.53 106.38 12/20/2022 06:48:11 81.06, 116.36 106.35 3.13 67
3 12/20/2022 07:39:47 -81.06, -76.20 73.63 12/20/2022 07:38:51 -81.06, -76.31 73.66 1.85 56
4 12/20/2022 08:30:20 81.07, 91.09 106.37 12/20/2022 08:29:32 81.07, 91.24 106.37 2.78 48
5 12/20/2022 09:20:49 -81.07,-101.64 73.64 12/20/2022 09:20:13 -81.06,-101.80 73.68 2.99 36
6 12/20/2022 10:11:22 81.07, 65.64 106.36 12/20/2022 10:10:54 81.07, 65.74 106.35 1.95 28
7 12/20/2022 11:01:51 -81.08,-127.08 73.65 12/20/2022 11:01:34 -81.07,-126.92 73.65 3.00 17
8 12/20/2022 11:52:23 81.07, 40.56 106.37 12/20/2022 11:52:15 81.08, 40.62 106.38 1.51 8
9 12/20/2022 12:42:52 -81.07,-152.16 73.64 12/20/2022 12:42:55 -81.08,-152.05 73.63 1.98 3
10 12/20/2022 13:33:25 81.07, 15.11 106.36 12/20/2022 13:33:37 81.07, 15.13 106.36 0.54 12
11 12/20/2022 14:23:54 -81.08,-177.60 73.65 12/20/2022 14:24:17 -81.07,-177.54 73.64 1.34 23
12 12/20/2022 15:14:26 81.07, -9.96 106.37 12/20/2022 15:14:58 81.08, -10.00 106.39 1.41 32
13 12/20/2022 16:04:55 -81.07, 157.33 73.64 12/20/2022 16:05:38 -81.08, 157.33 73.62 0.87 43
14 12/20/2022 16:55:28 81.07, -35.41 106.36 12/20/2022 16:56:20 81.07, -35.49 106.37 1.39 52
15 12/20/2022 17:45:57 -81.08, 131.89 73.65 12/20/2022 17:47:00 -81.07, 131.84 73.64 1.07 63



Historial Predications of SNOs between NOAA-15 and METOP-C
